Location: Hains Lake
(37.8540°N, 99.8578°W)
Time: 14:05:50
(UTC+00:00)

Transit 2A - Pass Details

Date: 19 April 2021
Orbit: 602 x 957 km, 66.7° (Epoch: 13 May)

Event Time Altitude Azimuth Distance (km) Brightness Sun altitude
Rises 22:06:42 0° 342° (NNW) 2,876 9.0 36.7°
Reaches altitude 10° 22:09:08 10° 353° (N) 1,990 8.2 36.3°
Maximum altitude 22:13:06 31° 56° (NE) 1,134 6.7 35.5°
Drops below altitude 10° 22:17:18 10° 118° (ESE) 2,112 8.0 34.7°
Sets 22:19:57 0° 129° (SE) 3,082 8.8 34.2°
